User: anonymous   Login
Location: Bowman Observatory
(41.0326°N, 73.6210°W)
Time: 14:36:30
(UTC-04:00)
Language:

Cosmos 2297 - Orbit

View from above orbital plane
View from above orbital plane
View from above satellite
View from above satellite

Ground track
Ground track

The orbit data is extracted from the following two-line orbital elements,

1 23404U 94077A   17207.55780442 +.00000021 +00000-0 +36357-4 0  9993
2 23404 071.0096 210.5619 0013773 090.8598 269.4102 14.13485672169597
Epoch (UTC): 26 July 2017 13:23:14
Eccentricity: 0.0013773
inclination: 71.0096°
perigee height: 837 km
apogee height: 857 km
right ascension of ascending node: 210.5619°
argument of perigee: 90.8598°
revolutions per day: 14.13485672
mean anomaly at epoch: 269.4102°
orbit number at epoch: 16959

The dashed part of the orbit path shows where the satellite is in the earth's shadow,  

DLR